Jacksonville, IL

2:46 AM CDT on October 21, 2017 (GMT -0500)
Jacksonville Municipal

Weather History for KIJX - February, 2014

Change the Weather History Date:

Monday, February 24, 2014

  Actual Average (KSPI) Record (KSPI)
Temperature  
Mean Temperature 24 °F -  
Max Temperature 27 °F 41 °F 78 °F (1930)
Min Temperature 20 °F 25 °F -8 °F (2015)
Degree Days  
Heating Degree Days 42    
Moisture  
Dew Point 16 °F    
Average Humidity 70    
Maximum Humidity 84    
Minimum Humidity 55    
Precipitation  
Precipitation 0.00 in - - ()
Sea Level Pressure  
Sea Level Pressure 30.33 in    
Wind  
Wind Speed 5 mph (WNW)    
Max Wind Speed 10 mph    
Max Gust Speed -    
Visibility 10 miles    
Events Snow    
Averages and records for this station are not official NWS values.
T = Trace of Precipitation, MM = Missing Value Source: NWS Daily Summary

Daily Weather History Graph

Daily Weather History Graph

Search for Another Location

Airport or City:

Trip Planner

Search our weather history database for the weather conditions in past years. The results will help you decide how hot, cold, wet, or windy it might be!

Date:

Astronomy

Feb. 24, 2014 Rise Set
Actual Time 6:41 AM CST 5:47 PM CST
Civil Twilight 6:14 AM CST 6:14 PM CST
Nautical Twilight 5:42 AM CST 6:46 PM CST
Astronomical Twilight 5:11 AM CST 7:17 PM CST
Moon 2:39 AM CST (2/24) 12:49 PM CST (2/24)
Length of Visible Light 12h 00m
Length of Day
11h 06m
Waning Crescent, 28% of the Moon is Illuminated
Feb 24
Waning Crescent
Mar 1
New
Mar 8
First Quarter
Mar 16
Full
Mar 23
Last Quarter

Hourly Weather History & Observations

Time (CST) Temp. Windchill Dew Point Humidity Pressure Visibility Wind Dir Wind Speed Gust Speed Precip Events Conditions
12:15 AM 21.7 °F 14.3 °F 16.7 °F 81% 30.34 in 10.0 mi West 5.8 mph - N/A   Clear
12:35 AM 22.6 °F 18.0 °F 16.7 °F 78% 30.34 in 10.0 mi West 3.5 mph - N/A   Clear
12:55 AM 22.3 °F 14.9 °F 16.5 °F 79% 30.34 in 10.0 mi WNW 5.8 mph - N/A   Clear
1:15 AM 22.5 °F 16.3 °F 16.2 °F 77% 30.34 in 10.0 mi West 4.6 mph - N/A   Clear
1:35 AM 21.9 °F 17.2 °F 16.5 °F 80% 30.34 in 10.0 mi NW 3.5 mph - N/A   Clear
1:55 AM 22.3 °F 11.5 °F 14.0 °F 71% 30.34 in 10.0 mi NW 10.4 mph - N/A   Clear
2:15 AM 22.1 °F 12.0 °F 13.3 °F 69% 30.34 in 10.0 mi NNW 9.2 mph - N/A   Clear
2:35 AM 21.6 °F 13.0 °F 13.3 °F 70% 30.33 in 10.0 mi NNW 6.9 mph - N/A   Clear
2:55 AM 21.0 °F 12.4 °F 13.1 °F 71% 30.33 in 10.0 mi NNW 6.9 mph - N/A   Clear
3:15 AM 21.2 °F 14.9 °F 14.0 °F 74% 30.34 in 10.0 mi WNW 4.6 mph - N/A   Clear
3:35 AM 20.8 °F 13.2 °F 13.6 °F 74% 30.33 in 10.0 mi NW 5.8 mph - N/A   Clear
3:55 AM 20.1 °F 12.3 °F 13.6 °F 76% 30.34 in 10.0 mi NNW 5.8 mph - N/A   Clear
4:15 AM 20.8 °F 13.2 °F 13.8 °F 74% 30.35 in 10.0 mi NW 5.8 mph - N/A   Clear
4:35 AM 21.2 °F 12.6 °F 13.6 °F 73% 30.34 in 10.0 mi NW 6.9 mph - N/A   Clear
4:55 AM 21.2 °F 14.9 °F 13.6 °F 73% 30.33 in 10.0 mi NNW 4.6 mph - N/A   Clear
5:15 AM 21.2 °F 14.9 °F 13.5 °F 72% 30.35 in 10.0 mi NNW 4.6 mph - N/A   Clear
5:35 AM 21.6 °F 16.8 °F 14.0 °F 73% 30.35 in 10.0 mi WNW 3.5 mph - N/A   Clear
5:55 AM 21.6 °F 15.3 °F 14.0 °F 73% 30.36 in 10.0 mi WNW 4.6 mph - N/A   Scattered Clouds
6:15 AM 21.9 °F 15.7 °F 14.2 °F 72% 30.36 in 10.0 mi WNW 4.6 mph - N/A   Scattered Clouds
6:35 AM 21.9 °F - 14.2 °F 72% 30.36 in 10.0 mi Calm Calm - N/A   Clear
6:55 AM 21.7 °F - 14.5 °F 74% 30.36 in 10.0 mi Calm Calm - N/A   Clear
7:15 AM 22.1 °F 15.9 °F 14.9 °F 74% 30.36 in 10.0 mi West 4.6 mph - N/A   Clear
7:35 AM 22.6 °F 16.5 °F 14.5 °F 71% 30.37 in 10.0 mi WNW 4.6 mph - N/A   Clear
7:55 AM 23.5 °F 15.4 °F 15.1 °F 70% 30.39 in 10.0 mi WNW 6.9 mph - N/A   Scattered Clouds
8:15 AM 23.5 °F 14.5 °F 15.1 °F 70% 30.38 in 10.0 mi NNW 8.1 mph - N/A   Clear
8:35 AM 23.9 °F 19.5 °F 15.4 °F 70% 30.38 in 10.0 mi NW 3.5 mph - N/A   Scattered Clouds
8:55 AM 23.7 °F 17.8 °F 14.2 °F 67% 30.38 in 10.0 mi WNW 4.6 mph - N/A   Mostly Cloudy
9:15 AM 23.9 °F 15.8 °F 14.7 °F 68% 30.39 in 10.0 mi NNW 6.9 mph - N/A   Scattered Clouds
9:35 AM 24.4 °F 15.6 °F 14.4 °F 66% 30.40 in 10.0 mi NNW 8.1 mph - N/A   Clear
9:55 AM 24.6 °F 16.7 °F 13.8 °F 64% 30.40 in 10.0 mi WNW 6.9 mph - N/A   Clear
10:15 AM 25.5 °F 18.7 °F 14.5 °F 63% 30.40 in 10.0 mi WNW 5.8 mph - N/A   Clear
10:35 AM 25.2 °F 18.3 °F 14.2 °F 63% 30.40 in 10.0 mi NNW 5.8 mph - N/A   Clear
10:55 AM 25.3 °F 19.7 °F 13.8 °F 62% 30.40 in 10.0 mi WNW 4.6 mph - N/A   Scattered Clouds
11:15 AM 25.7 °F 18.0 °F 14.5 °F 63% 30.39 in 10.0 mi NW 6.9 mph - N/A   Scattered Clouds
11:35 AM 25.9 °F 19.2 °F 13.8 °F 60% 30.38 in 10.0 mi North 5.8 mph - N/A   Clear
11:50 AM 25.9 °F 18.2 °F 14.0 °F 61% 30.38 in 10.0 mi NW 6.9 mph - N/A   Mostly Cloudy
12:15 PM 26.4 °F 20.9 °F 14.0 °F 59% 30.38 in 10.0 mi WNW 4.6 mph - N/A   Mostly Cloudy
12:35 PM 26.4 °F 19.8 °F 13.3 °F 58% 30.37 in 10.0 mi West 5.8 mph - N/A   Scattered Clouds
12:55 PM 27.0 °F 20.5 °F 14.4 °F 59% 30.37 in 10.0 mi WSW 5.8 mph - N/A   Clear
1:15 PM 27.3 °F 19.9 °F 13.5 °F 56% 30.36 in 10.0 mi West 6.9 mph - N/A   Clear
1:35 PM 27.7 °F 20.4 °F 13.5 °F 55% 30.35 in 10.0 mi WNW 6.9 mph - N/A   Clear
1:55 PM 27.3 °F 19.1 °F 15.1 °F 60% 30.35 in 10.0 mi WSW 8.1 mph - N/A   Clear
2:15 PM 27.1 °F 19.7 °F 16.7 °F 65% 30.33 in 10.0 mi West 6.9 mph - N/A   Clear
2:35 PM 26.4 °F 19.8 °F 18.0 °F 70% 30.33 in 5.0 mi West 5.8 mph - N/A Snow Light Snow
2:55 PM 26.1 °F 19.4 °F 18.5 °F 73% 30.32 in 10.0 mi West 5.8 mph - N/A   Mostly Cloudy
3:15 PM 26.4 °F 20.9 °F 18.5 °F 72% 30.31 in 10.0 mi SW 4.6 mph - N/A   Overcast
3:35 PM 26.2 °F 19.6 °F 18.0 °F 71% 30.31 in 10.0 mi WSW 5.8 mph - N/A   Overcast
3:55 PM 26.4 °F 20.9 °F 18.0 °F 70% 30.31 in 10.0 mi WSW 4.6 mph - N/A   Overcast
4:15 PM 26.6 °F 21.2 °F 17.8 °F 69% 30.30 in 10.0 mi West 4.6 mph - N/A   Overcast
4:30 PM 26.4 °F 20.9 °F 17.1 °F 68% 30.30 in 10.0 mi West 4.6 mph - N/A   Overcast
4:55 PM 26.4 °F - 17.4 °F 69% 30.29 in 10.0 mi Calm Calm - N/A   Overcast
5:15 PM 26.4 °F 22.4 °F 17.4 °F 69% 30.29 in 10.0 mi West 3.5 mph - N/A   Overcast
5:35 PM 26.4 °F - 16.5 °F 66% 30.29 in 10.0 mi Calm Calm - N/A   Overcast
5:55 PM 26.2 °F - 16.3 °F 66% 30.28 in 10.0 mi Calm Calm - N/A   Overcast
6:15 PM 26.2 °F - 16.5 °F 67% 30.28 in 10.0 mi Calm Calm - N/A   Overcast
6:35 PM 26.4 °F - 16.0 °F 65% 30.28 in 10.0 mi Calm Calm - N/A   Overcast
6:55 PM 26.6 °F - 16.0 °F 64% 30.28 in 10.0 mi Calm Calm - N/A   Overcast
7:15 PM 26.6 °F - 16.9 °F 67% 30.27 in 10.0 mi Calm Calm - N/A   Overcast
7:35 PM 26.4 °F - 17.4 °F 69% 30.27 in 10.0 mi Calm Calm - N/A   Overcast
7:55 PM 26.2 °F - 16.3 °F 66% 30.28 in 7.0 mi Calm Calm - N/A Snow Light Snow
8:15 PM 25.7 °F - 15.8 °F 66% 30.27 in 7.0 mi Calm Calm - N/A Snow Light Snow
8:35 PM 25.7 °F - 16.5 °F 68% 30.28 in 7.0 mi Calm Calm - N/A Snow Light Snow
8:55 PM 25.3 °F - 17.2 °F 71% 30.29 in 5.0 mi Calm Calm - N/A Snow Light Snow
9:10 PM 25.2 °F - 17.8 °F 74% 30.29 in 7.0 mi Calm Calm - N/A Snow Light Snow
9:35 PM 24.8 °F - 17.6 °F 74% 30.28 in 10.0 mi Calm Calm - N/A Snow Light Snow
9:55 PM 24.8 °F - 18.0 °F 75% 30.26 in 10.0 mi Calm Calm - N/A   Overcast
10:15 PM 24.8 °F 16.9 °F 19.0 °F 79% 30.27 in 10.0 mi North 6.9 mph - N/A   Overcast
10:35 PM 24.6 °F 18.8 °F 19.9 °F 82% 30.26 in 10.0 mi North 4.6 mph - N/A   Overcast
10:55 PM 24.4 °F 15.6 °F 20.3 °F 84% 30.26 in 10.0 mi North 8.1 mph - N/A   Overcast
11:15 PM 24.1 °F 19.7 °F 19.8 °F 84% 30.26 in 10.0 mi North 3.5 mph - N/A   Overcast
11:35 PM 24.3 °F 18.4 °F 19.9 °F 84% 30.27 in 10.0 mi NNW 4.6 mph - N/A   Overcast
11:55 PM 24.3 °F 19.9 °F 19.6 °F 82% 30.26 in 10.0 mi NNW 3.5 mph - N/A   Overcast